Regional Weather Roundup
Issued by NWS

Home | Current Version | Previous Version | Graphics & Text | Print | Product List | Glossary On
Versions: 1 2 3 4 5 6 7 8 9 10 11 12 13 14 15 16 17 18 19 20 21 22 23 24 25 26 27 28 29 30 31 32 33 34 35 36 37 38 39 40 41 42 43 44 45 46 47 48 49 50
000
ASUS43 KIND 200509
RWRIN

WEATHER ROUNDUP FOR INDIANA
NATIONAL WEATHER SERVICE INDIANAPOLIS IN
1200 AM EST SAT DEC 20 2014

NOTE: "FAIR" INDICATES FEW OR NO CLOUDS BELOW 12,000 FEET WITH NO
SIGNIFICANT WEATHER AND/OR OBSTRUCTIONS TO VISIBILITY.

* - STATION DOES NOT REPORT WEATHER SUCH AS PRECIPITATION OR FOG.

+ - STATION NOT QUALITY CONTROLLED BY THE NATIONAL WEATHER SERVICE.
    USE DATA WITH CAUTION...ESPECIALLY DEWPOINT AND RELATIVE
    HUMIDITY OBSERVATIONS.

INZ001>003-010>013-019-020-200600-
NORTHWEST INDIANA

CITY           SKY/WX    TMP DP  RH WIND       PRES   REMARKS
GARY /AIRPORT/ CLOUDY    33  21  61 CALM      30.27F
KNOX *+        CLOUDY    30  24  75 CALM      30.25F
LA PORTE +     CLOUDY    32  27  80 CALM      30.26F
MICHIGAN CITY+ CLOUDY    32  21  64 CALM      30.27S
MONTICELLO +   CLOUDY    29  28  96 CALM      30.26S
RENSSELAER +   CLOUDY    30  30 100 CALM      30.27S FOG
VALPARAISO     CLOUDY    30  22  72 SW5       30.26F WCI  25

$$

LMZ046-743>745-200600-
SOUTHERN LAKE MICHIGAN

STATION/POSITION TIME  TEMP WIND        PRES
                       AIR  DIR/SP/G
                 (UTC) (F)  (DEG/KT/KT) (MB)

$$

INZ004-005-014>016-021>024-200600-
NORTH CENTRAL INDIANA

CITY           SKY/WX    TMP DP  RH WIND       PRES   REMARKS
GOSHEN         MOCLDY    26  23  88 CALM      30.26S
LOGANSPORT +   CLOUDY    30  27  86 CALM      30.27S FOG
PERU/GRISSOM   CLOUDY    29  29 100 S2        30.25F
ROCHESTER +    CLOUDY    32  30  93 CALM      30.26F
SOUTH BEND     CLOUDY    31  22  69 E3        30.27S
WARSAW +       CLOUDY    30  27  86 E3        30.26S

$$

INZ006>009-017-018-025>027-200600-
NORTHEAST INDIANA

CITY           SKY/WX    TMP DP  RH WIND       PRES   REMARKS
ANGOLA *+      CLEAR     19  18  93 CALM      30.25F
AUBURN +       MOCLDY    23  21  93 CALM      30.27S FOG
FORT WAYNE     MOCLDY    26  22  84 CALM      30.27S
HUNTINGTON +   CLOUDY    29  27  92 CALM      30.26S

$$

INZ028-029-035-036-043>045-051>053-200600-
WEST CENTRAL INDIANA

CITY           SKY/WX    TMP DP  RH WIND       PRES   REMARKS
CRAWFORDSVL +  CLOUDY    27  23  86 CALM      30.26S FOG
GREENCASTLE +  CLOUDY    30  23  74 CALM      30.27R HAZE
LAFAYETTE      CLOUDY    28  26  92 CALM      30.28R
TERRE HAUTE    CLOUDY    31  26  82 CALM      30.28R

$$

INZ030>032-037>040-046>048-054>057-064-065-200600-
CENTRAL INDIANA

CITY           SKY/WX    TMP DP  RH WIND       PRES   REMARKS
CP ATTERBURY + CLOUDY    30  27  86 MISG      30.27S
FRANKFORT +    CLOUDY    29  29 100 CALM      30.28S FOG
GREENWOOD *+   CLOUDY    28  23  80 E3        30.26F
INDIANAPOLIS   CLOUDY    29  23  78 E7        30.25F WCI  22
-EAGLE CREEK   CLOUDY    29  24  82 SE3       30.25F
KOKOMO *+      CLOUDY    28  25  86 CALM      30.26F
MARION +       CLOUDY    28  28  96 CALM      30.26F FOG
MT COMFORT *+  CLOUDY    28  21  74 CALM      30.26F
SHELBYVILLE    CLOUDY    31  25  78 CALM      30.26F
ZIONSVILLE +   CLOUDY    29  26  88 CALM      30.26S FOG

$$

INZ033-034-041-042-049-050-058-059-200600-
EAST CENTRAL INDIANA

CITY           SKY/WX    TMP DP  RH WIND       PRES   REMARKS
MUNCIE         CLOUDY    29  25  85 CALM      30.25F

$$

INZ060-061-067>069-081>083-085>088-200600-
SOUTHWEST INDIANA

CITY           SKY/WX    TMP DP  RH WIND       PRES   REMARKS
EVANSVILLE     CLOUDY    33  24  69 E6        30.29R WCI  28
HUNTINGBURG *+ CLOUDY    30  21  69 E5        30.28R WCI  25
WASHINGTON +   CLOUDY    31  24  75 CALM      30.28S

$$

INZ062-063-066-070>080-084-089>092-200600-
SOUTH CENTRAL AND SOUTHEAST INDIANA

CITY           SKY/WX    TMP DP  RH WIND       PRES   REMARKS
BLOOMINGTON    CLOUDY    30  23  75 E8        30.25F WCI  22
NORTH VERNON + CLOUDY    30  23  74 CALM      30.27F

$$




USA.gov is the U.S. government's official web portal to all federal, state and local government web resources and services.